This is the latest recevied weather packets stored in our database for station/object LU5DTF-1. If no packets are shown the sender has not sent any weather packets the latest 10 day(s).
| Time | Temp. | Humidity | Pressure | Rain* | Wind** | Luminosity | Snow |
|---|---|---|---|---|---|---|---|
| 1778106601 | 15° C | 94% | 1003.7 hPa | 10.67 mm | - | - | - |
| 1778106300 | 15° C | 94% | 1003.1 hPa | 9.14 mm | - | - | - |
| 1778106000 | 15° C | 94% | 1003.4 hPa | 7.11 mm | - | - | - |
| 1778105700 | 15° C | 94% | 1003.4 hPa | 6.35 mm | - | - | - |
| 1778105400 | 15° C | 94% | 1003.9 hPa | 5.84 mm | - | - | - |
| 1778105100 | 15° C | 94% | 1003.4 hPa | 6.1 mm | - | - | - |
| 1778104800 | 15° C | 94% | 1003.4 hPa | 6.1 mm | - | - | - |
| 1778104500 | 15° C | 94% | 1004.7 hPa | 6.86 mm | - | - | - |
| 1778104200 | 15° C | 94% | 1004.2 hPa | 7.11 mm | - | - | - |
| 1778103900 | 15° C | 94% | 1004.3 hPa | 9.65 mm | - | - | - |
| 1778103300 | 15° C | 94% | 1004.5 hPa | 9.4 mm | - | - | - |
| 1778103000 | 15° C | 94% | 1004.8 hPa | 8.89 mm | - | - | - |
| 1778102700 | 15° C | 94% | 1004.8 hPa | 7.87 mm | - | - | - |
| 1778102400 | 15° C | 94% | 1005 hPa | 7.87 mm | - | - | - |
| 1778102101 | 14.44° C | 94% | 1005.1 hPa | 7.87 mm | - | - | - |
| 1778101800 | 14.44° C | 94% | 1005 hPa | 7.37 mm | - | - | - |
| 1778101500 | 14.44° C | 94% | 1005.3 hPa | 7.11 mm | - | - | - |
| 1778101200 | 14.44° C | 93% | 1005.6 hPa | 6.35 mm | - | - | - |
| 1778100900 | 14.44° C | 93% | 1005.9 hPa | 5.08 mm | - | - | - |
| 1778100600 | 14.44° C | 93% | 1006 hPa | 4.06 mm | - | - | - |
| 1778100300 | 14.44° C | 93% | 1007.4 hPa | 1.02 mm | - | - | - |
| 1778100000 | 14.44° C | 93% | 1007.1 hPa | 1.02 mm | - | - | - |
| 1778099700 | 14.44° C | 93% | 1007 hPa | 1.02 mm | - | - | - |
| 1778099401 | 14.44° C | 93% | 1006.5 hPa | 1.02 mm | - | - | - |
| 1778099100 | 14.44° C | 93% | 1006.4 hPa | 1.52 mm | - | - | - |
* Rain latest hour (hover to see other rain measurements)
** Current wind speed in m/s (hover to see current wind gust speed)